| time (UTC) | temp C | wind direction | speed KPH | gust KPH | rain 1hr cm | rain 24hr cm | rain mn cm | humidity % | barometer mb |
| 20260503175225 | 15 | 277 | 4.8 | 4.8 | 0.00 | 0.00 | 0.00 | 39 | 1025.5 |
| 20260503174720 | 15 | 215 | 3.2 | 3.2 | 0.00 | 0.00 | 0.00 | 40 | 1025.5 |
| 20260503174218 | 15 | 37 | 4.8 | 4.8 | 0.00 | 0.00 | 0.00 | 39 | 1025.5 |
| 20260503173713 | 14 | 225 | 11.3 | 14.5 | 0.00 | 0.00 | 0.00 | 36 | 1025.9 |
| 20260503173209 | 14 | 218 | 6.4 | 8.0 | 0.00 | 0.00 | 0.00 | 35 | 1026.0 |
| 20260503172706 | 15 | 223 | 9.7 | 16.1 | 0.00 | 0.00 | 0.00 | 37 | 1026.0 |
| 20260503172204 | 15 | 208 | 11.3 | 12.9 | 0.00 | 0.00 | 0.00 | 35 | 1026.1 |
| 20260503171700 | 15 | 197 | 3.2 | 4.8 | 0.00 | 0.00 | 0.00 | 33 | 1026.1 |
| 20260503171157 | 13 | 331 | 3.2 | 4.8 | 0.00 | 0.00 | 0.00 | 40 | 1026.2 |
| 20260503170654 | 14 | 304 | 3.2 | 4.8 | 0.00 | 0.00 | 0.00 | 38 | 1026.1 |
| 20260503170151 | 14 | 203 | 8.0 | 9.7 | 0.00 | 0.00 | 0.00 | 38 | 1026.4 |
| 20260503160113 | 13 | 222 | 6.4 | 8.0 | 0.00 | 0.00 | 0.00 | 35 | 1026.9 |
| 20260503150542 | 13 | 223 | 4.8 | 11.3 | 0.00 | 0.00 | 0.00 | 42 | 1027.2 |
| 20260503130932 | 7 | 253 | 3.2 | 4.8 | 0.00 | 0.00 | 0.00 | 72 | 1027.0 |
| 20260503130430 | 7 | 289 | 1.6 | 1.6 | 0.00 | 0.00 | 0.00 | 74 | 1027.2 |
| 20260503110332 | 0 | 102 | 0.0 | 1.6 | 0.00 | 0.00 | 0.00 | 97 | 1026.3 |
| 20260503100258 | 0 | 334 | 0.0 | 0.0 | 0.00 | 0.00 | 0.00 | 94 | 1025.9 |
| 20260503090218 | 1 | 45 | 0.0 | 1.6 | 0.00 | 0.00 | 0.00 | 95 | 1025.8 |
| 20260503081151 | 2 | 42 | 1.6 | 1.6 | 0.00 | 0.00 | 0.00 | 91 | 1025.5 |
| 20260503080646 | 2 | 18 | 0.0 | 1.6 | 0.00 | 0.00 | 0.00 | 89 | 1025.3 |
| 20260503080144 | 2 | 357 | 0.0 | 0.0 | 0.00 | 0.00 | 0.00 | 88 | 1025.4 |
| 20260503072620 | 2 | 359 | 0.0 | 0.0 | 0.00 | 0.00 | 0.00 | 89 | 1025.6 |
| 20260503072117 | 2 | 354 | 0.0 | 0.0 | 0.00 | 0.00 | 0.00 | 89 | 1025.5 |
| 20260503071614 | 2 | 341 | 0.0 | 0.0 | 0.00 | 0.00 | 0.00 | 89 | 1025.5 |
| 20260503071111 | 2 | 350 | 0.0 | 0.0 | 0.00 | 0.00 | 0.00 | 90 | 1025.4 |
| 20260503070608 | 1 | 341 | 0.0 | 0.0 | 0.00 | 0.00 | 0.00 | 91 | 1025.4 |
| 20260503070106 | 1 | 341 | 0.0 | 0.0 | 0.00 | 0.00 | 0.00 | 90 | 1025.4 |
| 20260503055026 | 2 | 2 | 0.0 | 0.0 | 0.00 | 0.00 | 0.00 | 84 | 1025.4 |
| 20260503054522 | 3 | 339 | 0.0 | 0.0 | 0.00 | 0.00 | 0.00 | 84 | 1025.4 |
| 20260503054020 | 3 | 338 | 0.0 | 0.0 | 0.00 | 0.00 | 0.00 | 85 | 1025.5 |
| 20260503053517 | 3 | 6 | 0.0 | 0.0 | 0.00 | 0.00 | 0.00 | 84 | 1025.4 |
| 20260503053015 | 3 | 341 | 0.0 | 0.0 | 0.00 | 0.00 | 0.00 | 82 | 1025.6 |
| 20260503052511 | 3 | 341 | 0.0 | 0.0 | 0.00 | 0.00 | 0.00 | 81 | 1025.3 |
| 20260503052008 | 3 | 338 | 0.0 | 0.0 | 0.00 | 0.00 | 0.00 | 80 | 1025.4 |
| 20260503051503 | 3 | 346 | 0.0 | 0.0 | 0.00 | 0.00 | 0.00 | 81 | 1025.3 |
| 20260503051001 | 4 | 344 | 0.0 | 0.0 | 0.00 | 0.00 | 0.00 | 80 | 1025.2 |
| 20260503050456 | 4 | 345 | 0.0 | 0.0 | 0.00 | 0.00 | 0.00 | 79 | 1025.3 |
| 20260503045955 | 4 | 343 | 0.0 | 0.0 | 0.00 | 0.00 | 0.00 | 79 | 1025.2 |
| 20260503045452 | 4 | 346 | 0.0 | 0.0 | 0.00 | 0.00 | 0.00 | 79 | 1025.2 |
| 20260503044949 | 4 | 345 | 0.0 | 0.0 | 0.00 | 0.00 | 0.00 | 79 | 1025.2 |
| 20260503044445 | 4 | 347 | 0.0 | 0.0 | 0.00 | 0.00 | 0.00 | 79 | 1025.2 |
| 20260503043943 | 5 | 26 | 0.0 | 0.0 | 0.00 | 0.00 | 0.00 | 80 | 1025.3 |
| 20260503043439 | 5 | 341 | 0.0 | 0.0 | 0.00 | 0.00 | 0.00 | 79 | 1025.4 |
| 20260503042935 | 5 | 350 | 0.0 | 0.0 | 0.00 | 0.00 | 0.00 | 77 | 1025.3 |
| 20260503042432 | 5 | 336 | 0.0 | 0.0 | 0.00 | 0.00 | 0.00 | 76 | 1025.1 |
| 20260503041929 | 5 | 340 | 0.0 | 0.0 | 0.00 | 0.00 | 0.00 | 77 | 1025.2 |
| 20260503041425 | 5 | 345 | 1.6 | 1.6 | 0.00 | 0.00 | 0.00 | 77 | 1025.0 |
| 20260503040923 | 5 | 12 | 0.0 | 0.0 | 0.00 | 0.00 | 0.00 | 79 | 1025.0 |
| 20260503040420 | 5 | 352 | 0.0 | 0.0 | 0.00 | 0.00 | 0.00 | 80 | 1024.8 |
| 20260503035918 | 5 | 337 | 0.0 | 0.0 | 0.00 | 0.00 | 0.00 | 81 | 1025.1 |
| 20260503035414 | 5 | 352 | 0.0 | 0.0 | 0.00 | 0.00 | 0.00 | 81 | 1024.8 |
| 20260503034912 | 5 | 348 | 0.0 | 0.0 | 0.00 | 0.00 | 0.00 | 82 | 1025.0 |
| 20260503034409 | 5 | 346 | 0.0 | 0.0 | 0.00 | 0.00 | 0.00 | 83 | 1024.7 |
| 20260503033906 | 5 | 340 | 0.0 | 0.0 | 0.00 | 0.00 | 0.00 | 83 | 1024.6 |
| 20260503033404 | 5 | 337 | 0.0 | 0.0 | 0.00 | 0.00 | 0.00 | 83 | 1025.0 |
| 20260503032901 | 6 | 337 | 0.0 | 0.0 | 0.00 | 0.00 | 0.00 | 80 | 1024.7 |
| 20260503032400 | 6 | 339 | 0.0 | 0.0 | 0.00 | 0.00 | 0.00 | 78 | 1024.5 |
| 20260503031857 | 6 | 330 | 0.0 | 1.6 | 0.00 | 0.00 | 0.00 | 78 | 1024.7 |
| 20260503031355 | 6 | 336 | 0.0 | 0.0 | 0.00 | 0.00 | 0.00 | 78 | 1024.7 |
| 20260503030851 | 6 | 353 | 0.0 | 0.0 | 0.00 | 0.00 | 0.00 | 77 | 1024.6 |
| 20260503030348 | 6 | 353 | 0.0 | 0.0 | 0.00 | 0.00 | 0.00 | 78 | 1024.6 |
| 20260503025844 | 6 | 349 | 0.0 | 0.0 | 0.00 | 0.00 | 0.00 | 80 | 1024.6 |
| 20260503025342 | 6 | 356 | 0.0 | 0.0 | 0.00 | 0.00 | 0.00 | 81 | 1024.6 |
| 20260503024839 | 6 | 43 | 1.6 | 1.6 | 0.00 | 0.00 | 0.00 | 81 | 1024.5 |
| 20260503024335 | 5 | 340 | 0.0 | 0.0 | 0.00 | 0.00 | 0.00 | 81 | 1024.5 |
| 20260503023832 | 5 | 336 | 0.0 | 0.0 | 0.00 | 0.00 | 0.00 | 79 | 1024.3 |
| 20260503023330 | 6 | 332 | 0.0 | 0.0 | 0.00 | 0.00 | 0.00 | 78 | 1024.1 |
| 20260503022826 | 6 | 332 | 0.0 | 0.0 | 0.00 | 0.00 | 0.00 | 78 | 1024.3 |
| 20260503022326 | 6 | 336 | 0.0 | 0.0 | 0.00 | 0.00 | 0.00 | 77 | 1024.1 |
| 20260503021822 | 6 | 342 | 0.0 | 0.0 | 0.00 | 0.00 | 0.00 | 78 | 1024.2 |
| 20260503021319 | 6 | 331 | 0.0 | 0.0 | 0.00 | 0.00 | 0.00 | 76 | 1024.1 |
| 20260503020816 | 7 | 330 | 0.0 | 0.0 | 0.00 | 0.00 | 0.00 | 75 | 1023.9 |
| 20260503020314 | 7 | 331 | 0.0 | 0.0 | 0.00 | 0.00 | 0.00 | 75 | 1024.3 |
| 20260503015810 | 7 | 331 | 0.0 | 0.0 | 0.00 | 0.00 | 0.00 | 73 | 1024.1 |
| 20260503015308 | 7 | 335 | 0.0 | 0.0 | 0.00 | 0.00 | 0.00 | 71 | 1024.0 |
| 20260503014803 | 8 | 337 | 0.0 | 0.0 | 0.00 | 0.00 | 0.00 | 69 | 1024.0 |
| 20260503014301 | 8 | 340 | 0.0 | 0.0 | 0.00 | 0.00 | 0.00 | 69 | 1023.7 |
| 20260503013758 | 8 | 356 | 0.0 | 0.0 | 0.00 | 0.00 | 0.00 | 69 | 1023.8 |
| 20260503013255 | 7 | 344 | 0.0 | 0.0 | 0.00 | 0.00 | 0.00 | 71 | 1023.5 |
| 20260503012753 | 7 | 337 | 0.0 | 0.0 | 0.00 | 0.00 | 0.00 | 72 | 1023.7 |
| 20260503012250 | 8 | 342 | 0.0 | 0.0 | 0.00 | 0.00 | 0.00 | 71 | 1023.7 |
| 20260503011746 | 8 | 339 | 0.0 | 0.0 | 0.00 | 0.00 | 0.00 | 67 | 1023.7 |
| 20260503011244 | 8 | 341 | 0.0 | 0.0 | 0.00 | 0.00 | 0.00 | 66 | 1023.5 |
| 20260503010740 | 8 | 330 | 0.0 | 1.6 | 0.00 | 0.00 | 0.00 | 66 | 1023.4 |
| 20260503010236 | 8 | 336 | 0.0 | 0.0 | 0.00 | 0.00 | 0.00 | 65 | 1023.4 |
| 20260503005734 | 8 | 342 | 0.0 | 0.0 | 0.00 | 0.00 | 0.00 | 65 | 1023.3 |
| 20260503005231 | 8 | 335 | 0.0 | 0.0 | 0.00 | 0.00 | 0.00 | 66 | 1023.1 |
| 20260503004727 | 8 | 337 | 0.0 | 0.0 | 0.00 | 0.00 | 0.00 | 65 | 1023.1 |
| 20260503004226 | 9 | 340 | 0.0 | 0.0 | 0.00 | 0.00 | 0.00 | 64 | 1023.2 |
| 20260503003723 | 9 | 10 | 0.0 | 0.0 | 0.00 | 0.00 | 0.00 | 63 | 1023.2 |
| 20260503003219 | 9 | 308 | 1.6 | 1.6 | 0.00 | 0.00 | 0.00 | 63 | 1023.0 |
| 20260503002716 | 9 | 350 | 0.0 | 0.0 | 0.00 | 0.00 | 0.00 | 64 | 1023.0 |
| 20260503002213 | 10 | 14 | 0.0 | 0.0 | 0.00 | 0.00 | 0.00 | 63 | 1022.9 |
| 20260503001709 | 10 | 351 | 0.0 | 0.0 | 0.00 | 0.00 | 0.00 | 62 | 1023.0 |
| 20260503001206 | 10 | 344 | 0.0 | 0.0 | 0.00 | 0.00 | 0.00 | 59 | 1022.9 |
| 20260503000704 | 11 | 325 | 0.0 | 0.0 | 0.00 | 0.00 | 0.00 | 58 | 1022.9 |
| 20260503000203 | 12 | 326 | 0.0 | 0.0 | 0.00 | 0.00 | 0.00 | 54 | 1022.9 |
| 20260502235658 | 12 | 5 | 1.6 | 1.6 | 0.00 | 0.00 | 0.00 | 53 | 1022.6 |
| 20260502235155 | 12 | 18 | 0.0 | 1.6 | 0.00 | 0.00 | 0.00 | 52 | 1022.6 |
| 20260502234651 | 12 | 314 | 0.0 | 0.0 | 0.00 | 0.00 | 0.00 | 53 | 1022.6 |
| 20260502234149 | 12 | 288 | 1.6 | 3.2 | 0.00 | 0.00 | 0.00 | 51 | 1022.7 |
| 20260502233645 | 12 | 102 | 1.6 | 3.2 | 0.00 | 0.00 | 0.00 | 51 | 1022.7 |
| 20260502233141 | 11 | 78 | 1.6 | 1.6 | 0.00 | 0.00 | 0.00 | 56 | 1022.6 |
| 20260502232637 | 11 | 332 | 0.0 | 0.0 | 0.00 | 0.00 | 0.00 | 55 | 1022.6 |
| 20260502232135 | 12 | 23 | 3.2 | 4.8 | 0.00 | 0.00 | 0.00 | 53 | 1022.5 |
| 20260502231632 | 12 | 311 | 1.6 | 3.2 | 0.00 | 0.00 | 0.00 | 52 | 1022.6 |
| 20260502231130 | 11 | 273 | 1.6 | 1.6 | 0.00 | 0.00 | 0.00 | 53 | 1022.7 |
| 20260502230628 | 11 | 354 | 6.4 | 8.0 | 0.00 | 0.00 | 0.00 | 53 | 1022.7 |
| 20260502230126 | 11 | 333 | 1.6 | 1.6 | 0.00 | 0.00 | 0.00 | 54 | 1022.7 |
| 20260502225621 | 11 | 266 | 3.2 | 3.2 | 0.00 | 0.00 | 0.00 | 55 | 1022.8 |
| 20260502225118 | 11 | 54 | 1.6 | 1.6 | 0.00 | 0.00 | 0.00 | 54 | 1022.6 |
| 20260502224614 | 11 | 318 | 0.0 | 1.6 | 0.00 | 0.00 | 0.00 | 56 | 1022.7 |
| 20260502224111 | 11 | 258 | 4.8 | 4.8 | 0.00 | 0.00 | 0.00 | 54 | 1023.0 |
| 20260502223609 | 11 | 137 | 3.2 | 3.2 | 0.00 | 0.00 | 0.00 | 54 | 1022.7 |
| 20260502223108 | 11 | 70 | 4.8 | 4.8 | 0.00 | 0.00 | 0.00 | 54 | 1022.7 |
| 20260502222604 | 12 | 94 | 3.2 | 3.2 | 0.00 | 0.00 | 0.00 | 53 | 1022.9 |
| 20260502222100 | 12 | 76 | 3.2 | 3.2 | 0.00 | 0.00 | 0.00 | 52 | 1022.7 |
| 20260502221556 | 12 | 113 | 3.2 | 4.8 | 0.00 | 0.00 | 0.00 | 51 | 1022.7 |
| 20260502221054 | 12 | 314 | 3.2 | 4.8 | 0.00 | 0.00 | 0.00 | 55 | 1022.8 |
| 20260502220549 | 12 | 345 | 1.6 | 1.6 | 0.00 | 0.00 | 0.00 | 54 | 1022.6 |
| 20260502220046 | 12 | 300 | 4.8 | 4.8 | 0.00 | 0.00 | 0.00 | 54 | 1022.6 |
| 20260502215543 | 12 | 313 | 3.2 | 3.2 | 0.00 | 0.00 | 0.00 | 54 | 1022.6 |
| 20260502215040 | 12 | 296 | 6.4 | 8.0 | 0.00 | 0.00 | 0.00 | 53 | 1022.5 |
| 20260502214537 | 12 | 286 | 4.8 | 8.0 | 0.00 | 0.00 | 0.00 | 55 | 1022.4 |
| 20260502214035 | 12 | 304 | 4.8 | 4.8 | 0.00 | 0.00 | 0.00 | 54 | 1022.5 |
| 20260502213531 | 12 | 317 | 3.2 | 3.2 | 0.00 | 0.00 | 0.00 | 55 | 1022.5 |
| 20260502213029 | 12 | 270 | 4.8 | 4.8 | 0.00 | 0.00 | 0.00 | 52 | 1022.4 |
| 20260502212528 | 12 | 353 | 3.2 | 4.8 | 0.00 | 0.00 | 0.00 | 51 | 1022.4 |
| 20260502212025 | 12 | 309 | 1.6 | 1.6 | 0.00 | 0.00 | 0.00 | 52 | 1022.4 |
| 20260502211521 | 12 | 347 | 4.8 | 4.8 | 0.00 | 0.00 | 0.00 | 54 | 1022.4 |
| 20260502211018 | 11 | 289 | 6.4 | 9.7 | 0.00 | 0.00 | 0.00 | 53 | 1022.6 |
| 20260502210515 | 11 | 298 | 6.4 | 9.7 | 0.00 | 0.00 | 0.00 | 51 | 1022.5 |
| 20260502210012 | 12 | 332 | 6.4 | 8.0 | 0.00 | 0.00 | 0.00 | 53 | 1022.4 |
| 20260502205508 | 12 | 325 | 3.2 | 4.8 | 0.00 | 0.00 | 0.00 | 55 | 1022.7 |
| 20260502205006 | 12 | 299 | 3.2 | 3.2 | 0.00 | 0.00 | 0.00 | 54 | 1022.5 |
| 20260502204502 | 12 | 225 | 1.6 | 1.6 | 0.00 | 0.00 | 0.00 | 52 | 1022.6 |
| 20260502204000 | 12 | 353 | 1.6 | 1.6 | 0.00 | 0.00 | 0.00 | 52 | 1022.6 |
| 20260502203457 | 12 | 10 | 8.0 | 11.3 | 0.00 | 0.00 | 0.00 | 51 | 1022.7 |
| 20260502202953 | 12 | 24 | 4.8 | 4.8 | 0.00 | 0.00 | 0.00 | 51 | 1022.9 |
| 20260502202450 | 12 | 179 | 1.6 | 1.6 | 0.00 | 0.00 | 0.00 | 53 | 1022.7 |
| 20260502201949 | 12 | 31 | 0.0 | 1.6 | 0.00 | 0.00 | 0.00 | 54 | 1022.8 |
| 20260502201444 | 12 | 38 | 3.2 | 4.8 | 0.00 | 0.00 | 0.00 | 52 | 1022.8 |
| 20260502200941 | 12 | 118 | 1.6 | 1.6 | 0.00 | 0.00 | 0.00 | 53 | 1022.7 |
| 20260502200437 | 11 | 83 | 4.8 | 4.8 | 0.00 | 0.00 | 0.00 | 52 | 1022.7 |
| 20260502195935 | 11 | 73 | 4.8 | 8.0 | 0.00 | 0.00 | 0.00 | 53 | 1022.6 |
| 20260502195431 | 12 | 23 | 4.8 | 8.0 | 0.00 | 0.00 | 0.00 | 53 | 1022.9 |
| 20260502194928 | 12 | 324 | 1.6 | 1.6 | 0.00 | 0.00 | 0.00 | 51 | 1022.8 |
| 20260502194425 | 12 | 341 | 3.2 | 3.2 | 0.00 | 0.00 | 0.00 | 48 | 1023.0 |
| 20260502193921 | 12 | 308 | 1.6 | 1.6 | 0.00 | 0.00 | 0.00 | 50 | 1022.8 |
| 20260502193418 | 12 | 319 | 0.0 | 0.0 | 0.00 | 0.00 | 0.00 | 49 | 1022.8 |
| 20260502192913 | 12 | 306 | 8.0 | 9.7 | 0.00 | 0.00 | 0.00 | 50 | 1023.0 |
| 20260502192411 | 12 | 284 | 1.6 | 3.2 | 0.00 | 0.00 | 0.00 | 52 | 1022.9 |
| 20260502191908 | 13 | 9 | 1.6 | 3.2 | 0.00 | 0.00 | 0.00 | 48 | 1022.9 |
| 20260502191406 | 13 | 232 | 1.6 | 1.6 | 0.00 | 0.00 | 0.00 | 49 | 1022.8 |
| 20260502190903 | 13 | 303 | 3.2 | 3.2 | 0.00 | 0.00 | 0.00 | 49 | 1022.9 |
| 20260502190400 | 13 | 281 | 4.8 | 4.8 | 0.00 | 0.00 | 0.00 | 48 | 1022.7 |
| 20260502185856 | 13 | 2 | 3.2 | 3.2 | 0.00 | 0.00 | 0.00 | 46 | 1022.9 |
| 20260502185351 | 14 | 337 | 12.9 | 16.1 | 0.00 | 0.00 | 0.00 | 43 | 1022.7 |
| 20260502184849 | 14 | 61 | 4.8 | 4.8 | 0.00 | 0.00 | 0.00 | 44 | 1022.7 |
| 20260502184344 | 14 | 11 | 0.0 | 1.6 | 0.00 | 0.00 | 0.00 | 44 | 1022.9 |
| 20260502183841 | 15 | 325 | 3.2 | 4.8 | 0.00 | 0.00 | 0.00 | 42 | 1022.9 |
| 20260502183337 | 14 | 13 | 3.2 | 3.2 | 0.00 | 0.00 | 0.00 | 45 | 1022.9 |
| 20260502182832 | 13 | 353 | 8.0 | 11.3 | 0.00 | 0.00 | 0.00 | 49 | 1022.8 |
| 20260502182328 | 13 | 352 | 3.2 | 3.2 | 0.00 | 0.00 | 0.00 | 45 | 1023.1 |
| 20260502181825 | 13 | 325 | 3.2 | 4.8 | 0.00 | 0.00 | 0.00 | 47 | 1023.3 |
| 20260502181324 | 13 | 56 | 3.2 | 4.8 | 0.00 | 0.00 | 0.00 | 47 | 1023.0 |
| 20260502180821 | 13 | 3 | 0.0 | 0.0 | 0.00 | 0.00 | 0.00 | 47 | 1022.9 |
| 20260502180318 | 13 | 145 | 3.2 | 4.8 | 0.00 | 0.00 | 0.00 | 47 | 1023.3 |